Change the Weather History Date:

Friday, June 28, 2013

  Actual Average (KPAH) Record (KPAH)
Temperature  
Mean Temperature 80 °F 78 °F  
Max Temperature 89 °F 89 °F 105 °F (1952)
Min Temperature 71 °F 68 °F 54 °F (1988)
Degree Days  
Heating Degree Days 0 0  
Month to date heating degree days 0  
Since 1 June heating degree days 0  
Since 1 July heating degree days 4128  
Cooling Degree Days 15 13  
Month to date cooling degree days 291  
Year to date cooling degree days 463  
Since 1 June cooling degree days 291  
Growing Degree Days 30 (Base 50)    
Moisture  
Dew Point 66 °F    
Average Humidity 64    
Maximum Humidity 89    
Minimum Humidity 38    
Precipitation  
Precipitation 0.00 in 0.14 in 3.82 in (1989)
Month to date precipitation 3.79  
Year to date precipitation 25.01  
Snow  
Snow 0.00 in 0.00 in 0.00 in (2002)
Month to date snowfall 0.0  
Since 1 June snowfall 0.0  
Since 1 July snowfall 9.1  
Snow Depth -    
Sea Level Pressure  
Sea Level Pressure 29.78 in    
Wind  
Wind Speed 7 mph (WNW)    
Max Wind Speed 16 mph    
Max Gust Speed 22 mph    
Visibility 10 miles    
Events      
T = Trace of Precipitation, MM = Missing Value Source: NWS Daily Summary

Daily Weather History Graph

Daily Weather History Graph

Search for Another Location

Airport or City:

Trip Planner

Search our weather history database for the weather conditions in past years. The results will help you decide how hot, cold, wet, or windy it might be!

Date:

Astronomy

Jun. 28, 2013 Rise Set
Actual Time 5:37 AM CDT 8:16 PM CDT
Civil Twilight 5:06 AM CDT 8:46 PM CDT
Nautical Twilight 4:28 AM CDT 9:24 PM CDT
Astronomical Twilight 3:46 AM CDT 10:07 PM CDT
Moon 11:56 PM CDT (6/28) 11:34 AM CDT (6/28)
Length of Visible Light 15h 40m
Length of Day
14h 38m
Waning Gibbous, 66% of the Moon is Illuminated
Jun 28
Waning Gibbous
Jun 29
Last Quarter
Jul 8
New
Jul 15
First Quarter
Jul 22
Full

Hourly Weather History & Observations

Time (CDT) Temp. Heat Index Dew Point Humidity Pressure Visibility Wind Dir Wind Speed Gust Speed Precip Events Conditions
12:15 AM 77.0 °F - 68.0 °F 74% 29.86 in 10.0 mi WSW 5.8 mph - N/A   Unknown
12:35 AM 77.0 °F - 68.0 °F 74% 29.86 in 10.0 mi West 4.6 mph - N/A   Clear
12:55 AM 75.2 °F - 68.0 °F 78% 29.86 in 10.0 mi WSW 5.8 mph - N/A   Clear
1:15 AM 75.2 °F - 68.0 °F 78% 29.86 in 10.0 mi West 6.9 mph - N/A   Unknown
1:35 AM 75.2 °F - 66.2 °F 73% 29.85 in 10.0 mi West 5.8 mph - N/A   Unknown
1:55 AM 75.2 °F - 66.2 °F 73% 29.84 in 10.0 mi WSW 6.9 mph - N/A   Clear
2:15 AM 75.2 °F - 66.2 °F 73% 29.85 in 10.0 mi West 5.8 mph - N/A   Scattered Clouds
2:35 AM 75.2 °F - 66.2 °F 73% 29.84 in 10.0 mi West 5.8 mph - N/A   Partly Cloudy
2:55 AM 75.2 °F - 66.2 °F 73% 29.83 in 10.0 mi West 4.6 mph - N/A   Clear
3:15 AM 75.2 °F - 66.2 °F 73% 29.82 in 10.0 mi West 4.6 mph - N/A   Partly Cloudy
3:35 AM 73.4 °F - 66.2 °F 78% 29.82 in 10.0 mi WSW 4.6 mph - N/A   Partly Cloudy
3:55 AM 73.4 °F - 66.2 °F 78% 29.81 in 10.0 mi WSW 4.6 mph - N/A   Clear
4:15 AM 73.4 °F - 68.0 °F 83% 29.81 in 10.0 mi West 5.8 mph - N/A   Unknown
4:35 AM 73.4 °F - 66.2 °F 78% 29.81 in 10.0 mi WSW 4.6 mph - N/A   Clear
4:55 AM 73.4 °F - 68.0 °F 83% 29.80 in 10.0 mi West 4.6 mph - N/A   Scattered Clouds
5:15 AM 73.4 °F - 68.0 °F 83% 29.80 in 10.0 mi WSW 3.5 mph - N/A   Partly Cloudy
5:35 AM 71.6 °F - 68.0 °F 88% 29.80 in 10.0 mi WSW 5.8 mph - N/A   Clear
5:55 AM 71.6 °F - 68.0 °F 88% 29.81 in 10.0 mi WSW 8.1 mph - N/A   Clear
6:15 AM 73.4 °F - 68.0 °F 83% 29.81 in 10.0 mi West 5.8 mph - N/A   Clear
6:35 AM 73.4 °F - 68.0 °F 83% 29.83 in 10.0 mi West 15.0 mph 21.9 mph N/A   Scattered Clouds
6:55 AM 73.4 °F - 68.0 °F 83% 29.83 in 10.0 mi West 10.4 mph - N/A   Clear
7:55 AM 75.2 °F - 69.8 °F 83% 29.81 in 10.0 mi NW 4.6 mph - N/A   Clear
8:15 AM 75.2 °F - 71.6 °F 89% 29.81 in 10.0 mi West 3.5 mph - N/A   Clear
8:35 AM 75.2 °F - 69.8 °F 83% 29.80 in 10.0 mi WNW 3.5 mph - N/A   Clear
8:55 AM 77.0 °F - 69.8 °F 78% 29.80 in 10.0 mi West 4.6 mph - N/A   Clear
9:15 AM 78.8 °F - 69.8 °F 74% 29.80 in 10.0 mi WNW 5.8 mph - N/A   Clear
9:35 AM 80.6 °F 84.6 °F 71.6 °F 74% 29.79 in 10.0 mi WNW 5.8 mph - N/A   Clear
9:55 AM 80.6 °F 84.6 °F 71.6 °F 74% 29.79 in 10.0 mi WNW 5.8 mph - N/A   Clear
10:15 AM 80.6 °F 84.6 °F 71.6 °F 74% 29.80 in 10.0 mi West 6.9 mph - N/A   Clear
10:35 AM 82.4 °F 87.2 °F 71.6 °F 70% 29.81 in 10.0 mi West 9.2 mph - N/A   Partly Cloudy
10:55 AM 82.4 °F 87.2 °F 71.6 °F 70% 29.82 in 10.0 mi WNW 9.2 mph - N/A   Scattered Clouds
11:15 AM 82.4 °F 87.2 °F 71.6 °F 70% 29.82 in 10.0 mi WNW 10.4 mph - N/A   Mostly Cloudy
11:35 AM 84.2 °F 88.4 °F 69.8 °F 62% 29.82 in 10.0 mi West 10.4 mph - N/A   Scattered Clouds
11:55 AM 84.2 °F 88.4 °F 69.8 °F 62% 29.82 in 10.0 mi West 5.8 mph - N/A   Partly Cloudy
12:15 PM 84.2 °F 88.4 °F 69.8 °F 62% 29.81 in 10.0 mi West 6.9 mph - N/A   Clear
12:35 PM 86.0 °F 89.4 °F 68.0 °F 55% 29.80 in 10.0 mi WNW 9.2 mph - N/A   Clear
12:55 PM 86.0 °F 90.4 °F 69.8 °F 58% 29.80 in 10.0 mi NNW 9.2 mph 18.4 mph N/A   Clear
1:15 PM 86.0 °F 89.4 °F 68.0 °F 55% 29.79 in 10.0 mi NW 12.7 mph 17.3 mph N/A   Partly Cloudy
1:35 PM 86.0 °F 88.2 °F 66.2 °F 51% 29.78 in 10.0 mi WNW 6.9 mph - N/A   Partly Cloudy
1:55 PM 87.8 °F 90.4 °F 66.2 °F 49% 29.77 in 10.0 mi West 9.2 mph - N/A   Scattered Clouds
2:15 PM 89.6 °F 90.1 °F 62.6 °F 40% 29.76 in 10.0 mi NNW 9.2 mph 16.1 mph N/A   Partly Cloudy
2:35 PM 89.6 °F 91.1 °F 64.4 °F 43% 29.75 in 10.0 mi NNW 9.2 mph - N/A   Clear
2:55 PM 89.6 °F 91.1 °F 64.4 °F 43% 29.74 in 10.0 mi WNW 13.8 mph 17.3 mph N/A   Clear
3:15 PM 87.8 °F 90.4 °F 66.2 °F 49% 29.74 in 10.0 mi NNW 9.2 mph - N/A   Scattered Clouds
3:35 PM 89.6 °F 90.1 °F 62.6 °F 40% 29.73 in 10.0 mi WNW 16.1 mph 21.9 mph N/A   Scattered Clouds
3:55 PM 89.6 °F 89.5 °F 60.8 °F 38% 29.73 in 10.0 mi NW 13.8 mph 19.6 mph N/A   Partly Cloudy
4:15 PM 89.6 °F 89.5 °F 60.8 °F 38% 29.72 in 10.0 mi NW 9.2 mph 20.7 mph N/A   Partly Cloudy
4:35 PM 89.6 °F 90.1 °F 62.6 °F 40% 29.72 in 10.0 mi NW 12.7 mph - N/A   Clear
4:55 PM 89.6 °F 90.1 °F 62.6 °F 40% 29.71 in 10.0 mi WNW 11.5 mph - N/A   Clear
5:15 PM 89.6 °F 90.1 °F 62.6 °F 40% 29.71 in 10.0 mi NW 11.5 mph - N/A   Clear
5:35 PM 89.6 °F 89.5 °F 60.8 °F 38% 29.70 in 10.0 mi WNW 15.0 mph - N/A   Partly Cloudy
5:55 PM 87.8 °F 88.5 °F 62.6 °F 43% 29.70 in 10.0 mi WNW 10.4 mph - N/A   Mostly Cloudy
6:15 PM 86.0 °F 86.6 °F 62.6 °F 45% 29.69 in 10.0 mi NW 8.1 mph 16.1 mph N/A   Mostly Cloudy
6:35 PM 86.0 °F 86.6 °F 62.6 °F 45% 29.69 in 10.0 mi NW 10.4 mph - N/A   Overcast
6:55 PM 86.0 °F 86.6 °F 62.6 °F 45% 29.70 in 10.0 mi NNW 12.7 mph - N/A   Overcast
7:15 PM 86.0 °F 86.6 °F 62.6 °F 45% 29.70 in 10.0 mi NW 9.2 mph - N/A   Scattered Clouds
7:35 PM 84.2 °F 85.6 °F 64.4 °F 51% 29.70 in 10.0 mi NW 8.1 mph - N/A   Clear
7:55 PM 82.4 °F 83.9 °F 64.4 °F 54% 29.71 in 10.0 mi NNW 5.8 mph - N/A   Clear
8:15 PM 80.6 °F 82.3 °F 64.4 °F 58% 29.70 in 10.0 mi NW 4.6 mph - N/A   Clear
8:35 PM 78.8 °F - 64.4 °F 61% 29.71 in 10.0 mi NW 8.1 mph - N/A   Clear
8:55 PM 80.6 °F 81.8 °F 62.6 °F 54% 29.71 in 10.0 mi NNW 9.2 mph - N/A   Clear
9:15 PM 78.8 °F - 59.0 °F 51% 29.72 in 10.0 mi NNW 9.2 mph - N/A   Clear
9:35 PM 77.0 °F - 59.0 °F 54% 29.73 in 10.0 mi NNW 5.8 mph - N/A   Clear
9:55 PM 77.0 °F - 60.8 °F 57% 29.74 in 10.0 mi NNW 3.5 mph - N/A   Clear
10:15 PM 75.2 °F - 60.8 °F 61% 29.75 in 10.0 mi NW 3.5 mph - N/A   Clear
10:35 PM 71.6 °F - 62.6 °F 73% 29.75 in 10.0 mi West 3.5 mph - N/A   Scattered Clouds
10:55 PM 73.4 °F - 60.8 °F 65% 29.75 in 10.0 mi NW 3.5 mph - N/A   Mostly Cloudy
11:15 PM 73.4 °F - 62.6 °F 69% 29.75 in 10.0 mi WNW 3.5 mph - N/A   Mostly Cloudy
11:35 PM 71.6 °F - 62.6 °F 73% 29.75 in 10.0 mi WSW 5.8 mph - N/A   Clear
11:55 PM 71.6 °F - 62.6 °F 73% 29.75 in 10.0 mi WSW 5.8 mph - N/A   Clear